COSMOS 1618

Satellite information

Favourite Embed

Satellite Type and Status

PAYLOADIN ORBIT

Key statistics

Satellite COSMOS 1618 at a glance.

Uptime

14896

Days in orbit

Revolutions

≈ 12.6

Per day

Orbit

LEO

Low Earth Orbit

Inclination

82.6

Latest

Satellite identification and parameters

Extended collection of information and parameters for COSMOS 1618.

Object identification

Identified? True

Debris? False

Object name: COSMOS 1618

International designator: 1985-003B

Object number (NORAD): 15470

Object ID (CCSDS): 15470

Country: COMMONWEALTH OF INDEPENDENT STATES (CIS)

Current information (Y/N): Y

RCS size: MEDIUM

Orbital parameters

Period: 114.015 minutes

Inclination: 82.6035 deg

SMA: 7788.749 km

Apoapsis: 1414.913 km

Periapsis: 1406.316 km

RAAN: 240.9813 deg

Eccentricy: 0.00055183

Argument of periapsis: 47.1249 deg

Mean anomaly: 19.4132 deg

Mean motion: 12.62993624 rev/day

Mean motion (dot): 0.00000025 rev/day2

B* drag term: 0.000081914098 1/REarth

Two-line elements (TLE)

Creation date: Oct. 28, 2025, 2:18 a.m.

Reference frame: TEME

Reference center: EARTH

Epoch: Oct. 27, 2025, 9:33 p.m. UTC

TLE line 0: 0 COSMOS 1618

TLE line 1: 1 15470U 85003B 25300.89849043 .00000025 00000-0 81914-4 0 9992

TLE line 2: 2 15470 82.6035 240.9813 0005518 47.1249 19.4132 12.62993624880051

Live tracking on map

Real-time ground track for satellite COSMOS 1618.

In-orbit conjunctions

There are no conjunctions computed for COSMOS 1618, at the moment. Check back to stay up to date, as we update our databases every day.

Go to all conjunctions

Associated space launch

Second generation store-dump military communications satellite

COSMOS 1618 was lifted into orbit during the mission ‘Tsiklon-3 | Strela-3 1 to 6’, on board a Tsiklon-3 space rocket.

The launch took place on Jan. 15, 1985, 2:50 p.m. from 32/1.

For more information about the launch, click the button.

Launch to space Tsiklon-3 | Strela-3 1 to 6
Tsiklon-3 | Strela-3 1 to 6

Agency: N/A

Status: Launch Successful

Launch date: Jan. 15, 1985, 2:50 p.m. UTC

Rocket: Tsiklon-3

Launch pad: 32/1

Location: Plesetsk Cosmodrome, Russian Federation

...

Latest news about this satellite

There are no fresh news available about this satellite. Check back as we update our databases every day.


Newsletter sign-up

Weekly statistics, charts and insights to help you stay on top of the space industry.